Simultaneous Nadir Overpasses (SNOs) Predictions

Prediction of SNOs between LANDSAT-8 and METOP-A Satellite Orbit:

Table of predicted SNOs for the next 14.0 days since TLE Epoch: 11/25/2013
Index Date (LANDSAT-8) Time (LANDSAT-8) Lat,Lon (LANDSAT-8) SZA (LANDSAT-8 ) Date (METOP-A) Time (METOP-A) Lat,Lon (METOP-A) SZA (METOP-A ) Distance(km) Time Diff (sec)
1 11/26/2013 16:55:27 81.16, -33.31 104.52 11/26/2013 16:55:02 81.17, -33.20 104.53 2.02 25
2 11/26/2013 17:44:53 -81.18, 134.70 75.43 11/26/2013 17:45:42 -81.18, 134.58 75.42 1.96 49
3 11/29/2013 12:29:50 81.17, 33.17 105.00 11/29/2013 12:29:22 81.16, 33.08 104.97 1.69 28
4 11/29/2013 13:19:16 -81.19,-158.76 74.94 11/29/2013 13:20:01 -81.19,-158.74 74.92 0.45 45
5 12/02/2013 08:04:17 81.16, 99.48 105.40 12/02/2013 08:03:40 81.17, 99.66 105.41 3.25 37
6 12/02/2013 08:53:43 -81.19, -92.41 74.53 12/02/2013 08:54:20 -81.18, -92.53 74.53 2.16 37
7 12/05/2013 03:38:49 81.17, 165.97 105.77 12/05/2013 03:38:00 81.16, 165.79 105.72 3.21 49
8 12/05/2013 04:28:16 -81.18, -26.23 74.21 12/05/2013 04:28:40 -81.17, -26.38 74.22 2.60 24
9 12/07/2013 23:13:26 81.17,-127.72 106.06 12/07/2013 23:12:19 81.16,-127.77 106.02 1.15 67




NCC Satellite Simultaneous Nadir Overpasses (SNOs) Prediction Service
